| time (UTC) | temp F | wind direction | speed MPH | gust MPH | rain 1hr in | rain 24hr in | rain mn in | humidity % | barometer mb |
| 20260505041537 | 45 | 302 | 0.0 | 1.0 | 0.00 | 0.01 | 0.00 | 84 | 1011.2 |
| 20260505040033 | 45 | 301 | 0.0 | 2.0 | 0.00 | 0.01 | 0.00 | 84 | 1011.2 |
| 20260505034524 | 45 | 301 | 0.0 | 2.0 | 0.00 | 0.01 | 0.00 | 84 | 1011.3 |
| 20260505033020 | 45 | 311 | 0.0 | 0.0 | 0.00 | 0.01 | 0.00 | 84 | 1011.4 |
| 20260505031533 | 44 | 313 | 0.0 | 0.0 | 0.00 | 0.01 | 0.00 | 84 | 1011.4 |
| 20260505030017 | 44 | 313 | 0.0 | 1.0 | 0.00 | 0.01 | 0.00 | 84 | 1011.3 |
| 20260505024516 | 45 | 313 | 0.0 | 2.0 | 0.00 | 0.01 | 0.00 | 83 | 1011.4 |
| 20260505023015 | 45 | 315 | 0.0 | 3.0 | 0.00 | 0.01 | 0.00 | 83 | 1011.3 |
| 20260505021513 | 45 | 278 | 0.0 | 3.0 | 0.00 | 0.01 | 0.00 | 83 | 1011.5 |
| 20260505020013 | 45 | 336 | 0.0 | 4.0 | 0.00 | 0.01 | 0.00 | 82 | 1011.4 |
| 20260505014512 | 45 | 332 | 1.0 | 8.0 | 0.00 | 0.01 | 0.00 | 82 | 1011.4 |
| 20260505013011 | 45 | 330 | 1.0 | 5.0 | 0.00 | 0.01 | 0.00 | 82 | 1011.4 |
| 20260505011509 | 45 | 322 | 0.0 | 5.0 | 0.00 | 0.01 | 0.00 | 83 | 1011.5 |
| 20260505010007 | 45 | 341 | 1.0 | 5.0 | 0.00 | 0.01 | 0.00 | 84 | 1011.5 |
| 20260505004506 | 45 | 294 | 0.0 | 5.0 | 0.00 | 0.01 | 0.00 | 84 | 1011.7 |
| 20260505003006 | 45 | 322 | 0.0 | 4.0 | 0.00 | 0.01 | 0.00 | 84 | 1011.6 |
| 20260505001504 | 44 | 313 | 0.0 | 3.0 | 0.00 | 0.01 | 0.00 | 85 | 1011.6 |
| 20260505000001 | 45 | 340 | 0.0 | 0.0 | 0.00 | 0.01 | 0.00 | 84 | 1011.7 |
| 20260504234600 | 45 | 340 | 0.0 | 1.0 | 0.00 | 0.02 | 0.00 | 82 | 1011.7 |
| 20260504233111 | 47 | 340 | 0.0 | 2.0 | 0.00 | 0.02 | 0.00 | 80 | 1011.7 |
| 20260504231601 | 47 | 342 | 0.0 | 6.0 | 0.00 | 0.02 | 0.00 | 81 | 1011.7 |
| 20260504230057 | 47 | 337 | 2.0 | 4.0 | 0.00 | 0.02 | 0.00 | 81 | 1011.8 |
| 20260504224602 | 47 | 313 | 2.0 | 6.0 | 0.00 | 0.09 | 0.00 | 82 | 1011.7 |
| 20260504223112 | 45 | 294 | 0.0 | 3.0 | 0.00 | 0.09 | 0.00 | 81 | 1011.8 |
| 20260504221549 | 45 | 266 | 0.0 | 0.0 | 0.00 | 0.09 | 0.00 | 79 | 1011.6 |
| 20260504220048 | 45 | 267 | 0.0 | 1.0 | 0.00 | 0.09 | 0.00 | 79 | 1011.8 |
| 20260504214546 | 45 | 267 | 0.0 | 1.0 | 0.00 | 0.14 | 0.09 | 77 | 1011.8 |
| 20260504213054 | 46 | 267 | 0.0 | 1.0 | 0.00 | 0.14 | 0.09 | 77 | 1011.8 |
| 20260504211541 | 46 | 267 | 0.0 | 1.0 | 0.00 | 0.14 | 0.09 | 76 | 1011.8 |
| 20260504210041 | 47 | 267 | 0.0 | 1.0 | 0.00 | 0.14 | 0.09 | 75 | 1011.8 |
| 20260504204545 | 47 | 266 | 0.0 | 1.0 | 0.00 | 0.28 | 0.09 | 76 | 1011.7 |
| 20260504203044 | 47 | 267 | 0.0 | 0.0 | 0.00 | 0.28 | 0.09 | 76 | 1011.7 |
| 20260504201601 | 48 | 266 | 0.0 | 0.0 | 0.00 | 0.28 | 0.09 | 76 | 1011.7 |
| 20260504200038 | 48 | 267 | 0.0 | 0.0 | 0.00 | 0.28 | 0.09 | 73 | 1011.7 |
| 20260504194640 | 50 | 267 | 0.0 | 0.0 | 0.00 | 0.33 | 0.09 | 70 | 1011.5 |
| 20260504193048 | 51 | 267 | 0.0 | 0.0 | 0.00 | 0.33 | 0.09 | 68 | 1011.6 |
| 20260504191543 | 52 | 266 | 0.0 | 0.0 | 0.00 | 0.33 | 0.09 | 65 | 1011.4 |
| 20260504190147 | 53 | 267 | 0.0 | 1.0 | 0.00 | 0.33 | 0.09 | 62 | 1011.4 |
| 20260504184600 | 54 | 266 | 0.0 | 2.0 | 0.00 | 0.33 | 0.09 | 59 | 1011.4 |
| 20260504183155 | 55 | 233 | 0.0 | 4.0 | 0.00 | 0.33 | 0.09 | 58 | 1011.3 |
| 20260504181556 | 56 | 254 | 0.0 | 4.0 | 0.00 | 0.33 | 0.09 | 58 | 1011.2 |
| 20260504180154 | 56 | 251 | 0.0 | 5.0 | 0.00 | 0.33 | 0.09 | 56 | 1011.1 |
| 20260504174619 | 57 | 211 | 0.0 | 7.0 | 0.00 | 0.33 | 0.09 | 52 | 1011.0 |
| 20260504173042 | 57 | 287 | 1.0 | 6.0 | 0.00 | 0.33 | 0.09 | 47 | 1011.0 |
| 20260504171540 | 58 | 242 | 1.0 | 9.0 | 0.00 | 0.33 | 0.09 | 43 | 1011.1 |
| 20260504170141 | 58 | 305 | 3.0 | 10.0 | 0.00 | 0.33 | 0.09 | 40 | 1011.2 |
| 20260504150117 | 62 | 298 | 1.0 | 10.0 | 0.00 | 0.33 | 0.09 | 39 | 1011.1 |
| 20260504090118 | 54 | 249 | 3.0 | 10.0 | 0.00 | 0.33 | 0.08 | 86 | 1009.9 |
| 20260504081641 | 52 | 307 | 2.0 | 10.0 | 0.00 | 0.33 | 0.08 | 89 | 1009.6 |
| 20260504050154 | 55 | 226 | 4.0 | 9.0 | 0.00 | 0.33 | 0.08 | 90 | 1006.5 |